DAL2458 KSAT-KDTW

Flight info

Callsign DAL2458
Flight time N/A
Altitude 35000
Route SNIDR2 BLUMS IAH J29 PXV WWODD HANBL3
Aircraft A320/M-SDE3FGHIRWY/LB1

Departure

Time 2026-04-21 15:10
Airport San Antonio International Airport (KSAT)

Arrival

Time N/A
Airport Detroit Metropolitan Wayne County Airport (KDTW)
Time Latitude Longitude Altitude Speed Heading
2026-04-21 14:39 29.52675 -98.47018 798 ft 0 kts 311°
2026-04-21 15:02 29.52665 -98.47005 798 ft 3 kts 314°
2026-04-21 15:02 29.52650 -98.46989 798 ft 3 kts 320°
2026-04-21 15:03 29.52634 -98.46975 798 ft 3 kts 333°
2026-04-21 15:03 29.52616 -98.46967 798 ft 3 kts
2026-04-21 15:03 29.52604 -98.46970 798 ft 1 kts 39°
2026-04-21 15:05 29.52617 -98.46915 798 ft 9 kts 98°
2026-04-21 15:06 29.52629 -98.46857 798 ft 6 kts 49°
2026-04-21 15:06 29.52665 -98.46823 798 ft 8 kts 38°
2026-04-21 15:06 29.52718 -98.46791 798 ft 10 kts 35°
2026-04-21 15:06 29.52774 -98.46812 798 ft 10 kts 312°
2026-04-21 15:07 29.52839 -98.46896 798 ft 19 kts 312°
2026-04-21 15:07 29.52944 -98.47028 798 ft 25 kts 311°
2026-04-21 15:07 29.53059 -98.47177 798 ft 25 kts 311°
2026-04-21 15:07 29.53174 -98.47325 798 ft 25 kts 311°
2026-04-21 15:08 29.53289 -98.47473 798 ft 25 kts 312°
2026-04-21 15:08 29.53407 -98.47625 798 ft 26 kts 311°
2026-04-21 15:08 29.53529 -98.47781 798 ft 27 kts 312°
2026-04-21 15:08 29.53654 -98.47943 798 ft 28 kts 311°
2026-04-21 15:09 29.53774 -98.48098 798 ft 24 kts 312°
2026-04-21 15:09 29.53875 -98.48226 798 ft 19 kts 311°
2026-04-21 15:09 29.53947 -98.48319 798 ft 12 kts 311°
2026-04-21 15:09 29.53994 -98.48381 798 ft 12 kts 311°
2026-04-21 15:10 29.54066 -98.48475 798 ft 17 kts 311°
2026-04-21 15:10 29.54130 -98.48555 798 ft 10 kts 312°
2026-04-21 15:10 29.54165 -98.48597 798 ft 4 kts 322°
2026-04-21 15:10 29.54333 -98.48739 2818 ft 215 kts 321°
2026-04-21 15:11 29.54410 -98.48804 2796 ft 212 kts 320°